TimeEDT,TemperatureF,Dew PointF,Humidity,Sea Level PressureIn,VisibilityMPH,Wind Direction,Wind SpeedMPH,Gust SpeedMPH,PrecipitationIn,Events,Conditions,WindDirDegrees,DateUTC
12:13 AM,73.4,64.4,73,30.18,10.0,WSW,8.1,-,N/A,,Clear,240,2013-08-26 04:13:00
12:33 AM,73.4,64.4,73,30.17,10.0,SW,4.6,-,N/A,,Clear,220,2013-08-26 04:33:00
12:53 AM,73.4,64.4,73,30.17,10.0,SW,4.6,-,N/A,,Clear,220,2013-08-26 04:53:00
1:13 AM,71.6,64.4,78,30.17,10.0,WSW,3.5,-,N/A,,Clear,240,2013-08-26 05:13:00
1:34 AM,71.6,64.4,78,30.17,10.0,SW,4.6,-,N/A,,Clear,230,2013-08-26 05:34:00
1:54 AM,71.6,64.4,78,30.16,10.0,SW,3.5,-,N/A,,Clear,230,2013-08-26 05:54:00
2:14 AM,71.6,64.4,78,30.15,10.0,SW,4.6,-,N/A,,Clear,230,2013-08-26 06:14:00
2:34 AM,71.6,64.4,78,30.14,10.0,WSW,4.6,-,N/A,,Clear,250,2013-08-26 06:34:00
2:56 AM,71.6,64.4,78,30.14,10.0,WSW,5.8,-,N/A,,Clear,240,2013-08-26 06:56:00
3:16 AM,71.6,64.4,78,30.13,10.0,SW,5.8,-,N/A,,Clear,230,2013-08-26 07:16:00
3:36 AM,71.6,64.4,78,30.13,10.0,WSW,5.8,-,N/A,,Clear,250,2013-08-26 07:36:00
3:57 AM,71.6,64.4,78,30.14,10.0,WSW,5.8,-,N/A,,Clear,240,2013-08-26 07:57:00
4:12 AM,71.6,64.4,78,30.14,10.0,WSW,5.8,-,N/A,,Clear,240,2013-08-26 08:12:00
4:32 AM,69.8,64.4,83,30.14,10.0,WSW,6.9,-,N/A,,Clear,240,2013-08-26 08:32:00
4:52 AM,69.8,64.4,83,30.14,10.0,WSW,6.9,-,N/A,,Clear,240,2013-08-26 08:52:00
5:12 AM,69.8,64.4,83,30.14,10.0,SW,6.9,-,N/A,,Clear,230,2013-08-26 09:12:00
5:32 AM,69.8,62.6,78,30.14,10.0,WSW,5.8,-,N/A,,Clear,240,2013-08-26 09:32:00
5:52 AM,66.2,62.6,88,30.14,10.0,WSW,3.5,-,N/A,,Clear,250,2013-08-26 09:52:00
6:12 AM,66.2,62.6,88,30.14,10.0,WSW,4.6,-,N/A,,Clear,240,2013-08-26 10:12:00
6:32 AM,66.2,64.4,94,30.14,10.0,SW,5.8,-,N/A,,Clear,230,2013-08-26 10:32:00
6:53 AM,66.2,62.6,88,30.16,10.0,WSW,3.5,-,N/A,,Clear,240,2013-08-26 10:53:00
7:13 AM,66.2,62.6,88,30.16,10.0,WSW,3.5,-,N/A,,Clear,240,2013-08-26 11:13:00
7:33 AM,66.2,64.4,94,30.16,10.0,WSW,5.8,-,N/A,,Clear,240,2013-08-26 11:33:00
7:53 AM,68.0,64.4,88,30.16,10.0,WSW,5.8,-,N/A,,Clear,240,2013-08-26 11:53:00
8:13 AM,69.8,64.4,83,30.16,10.0,WSW,8.1,-,N/A,,Clear,240,2013-08-26 12:13:00
8:33 AM,71.6,64.4,78,30.15,10.0,SW,6.9,-,N/A,,Clear,230,2013-08-26 12:33:00
8:53 AM,73.4,64.4,73,30.14,10.0,WSW,8.1,-,N/A,,Clear,250,2013-08-26 12:53:00
9:13 AM,75.2,64.4,69,30.14,10.0,WSW,6.9,-,N/A,,Clear,250,2013-08-26 13:13:00
9:33 AM,75.2,66.2,73,30.13,10.0,WSW,8.1,-,N/A,,Clear,250,2013-08-26 13:33:00
9:53 AM,77.0,66.2,69,30.13,10.0,WSW,9.2,-,N/A,,Clear,250,2013-08-26 13:53:00
10:14 AM,78.8,66.2,65,30.14,10.0,West,12.7,-,N/A,,Clear,270,2013-08-26 14:14:00
10:35 AM,78.8,66.2,65,30.15,10.0,West,9.2,-,N/A,,Clear,260,2013-08-26 14:35:00
10:55 AM,78.8,66.2,65,30.14,10.0,WSW,9.2,-,N/A,,Clear,250,2013-08-26 14:55:00
11:15 AM,80.6,66.2,61,30.13,10.0,West,10.4,-,N/A,,Clear,260,2013-08-26 15:15:00
11:35 AM,82.4,68.0,62,30.12,10.0,WSW,9.2,-,N/A,,Clear,250,2013-08-26 15:35:00
11:55 AM,82.4,68.0,62,30.11,10.0,West,11.5,16.1,N/A,,Clear,270,2013-08-26 15:55:00
12:15 PM,82.4,68.0,62,30.11,10.0,West,9.2,-,N/A,,Clear,270,2013-08-26 16:15:00
12:35 PM,82.4,69.8,66,30.11,10.0,WSW,8.1,-,N/A,,Clear,250,2013-08-26 16:35:00
12:55 PM,82.4,71.6,70,30.09,10.0,WSW,9.2,-,N/A,,Clear,250,2013-08-26 16:55:00
1:16 PM,84.2,71.6,66,30.09,10.0,WSW,10.4,-,N/A,,Clear,250,2013-08-26 17:16:00
1:36 PM,84.2,69.8,62,30.08,10.0,WSW,10.4,-,N/A,,Clear,250,2013-08-26 17:36:00
1:56 PM,86.0,71.6,62,30.06,10.0,WSW,8.1,-,N/A,,Clear,250,2013-08-26 17:56:00
2:16 PM,87.8,71.6,58,30.05,10.0,West,9.2,-,N/A,,Clear,260,2013-08-26 18:16:00
2:36 PM,87.8,69.8,55,30.04,10.0,WSW,11.5,-,N/A,,Clear,240,2013-08-26 18:36:00
2:56 PM,87.8,69.8,55,30.03,10.0,WSW,16.1,-,N/A,,Clear,240,2013-08-26 18:56:00
3:16 PM,87.8,71.6,58,30.02,10.0,WSW,12.7,21.9,N/A,,Clear,240,2013-08-26 19:16:00
3:36 PM,89.6,71.6,55,30.02,10.0,West,11.5,23.0,N/A,,Clear,270,2013-08-26 19:36:00
3:56 PM,89.6,71.6,55,30.01,10.0,West,13.8,21.9,N/A,,Clear,270,2013-08-26 19:56:00
4:16 PM,87.8,71.6,58,30.00,10.0,West,13.8,20.7,N/A,,Clear,270,2013-08-26 20:16:00
4:32 PM,87.8,71.6,58,30.00,10.0,WSW,11.5,17.3,N/A,,Clear,250,2013-08-26 20:32:00
4:52 PM,87.8,71.6,58,30.00,10.0,WSW,12.7,-,N/A,,Clear,250,2013-08-26 20:52:00
5:12 PM,87.8,71.6,58,30.00,10.0,WSW,8.1,-,N/A,,Scattered Clouds,250,2013-08-26 21:12:00
5:32 PM,87.8,71.6,58,29.99,10.0,WSW,10.4,-,N/A,,Scattered Clouds,250,2013-08-26 21:32:00
5:52 PM,87.8,71.6,58,29.99,10.0,WSW,10.4,-,N/A,,Scattered Clouds,250,2013-08-26 21:52:00
6:12 PM,87.8,71.6,58,30.00,10.0,WSW,11.5,16.1,N/A,,Scattered Clouds,250,2013-08-26 22:12:00
6:32 PM,87.8,71.6,58,30.00,10.0,West,6.9,-,N/A,,Scattered Clouds,260,2013-08-26 22:32:00
6:52 PM,86.0,71.6,62,30.00,10.0,WSW,10.4,-,N/A,,Clear,250,2013-08-26 22:52:00
7:12 PM,84.2,71.6,66,30.00,10.0,WSW,9.2,-,N/A,,Clear,250,2013-08-26 23:12:00
7:32 PM,84.2,73.4,70,29.99,10.0,WSW,8.1,-,N/A,,Scattered Clouds,250,2013-08-26 23:32:00
7:53 PM,84.2,71.6,66,29.99,10.0,West,6.9,-,N/A,,Clear,260,2013-08-26 23:53:00
8:13 PM,82.4,71.6,70,29.99,10.0,WSW,10.4,-,N/A,,Scattered Clouds,250,2013-08-27 00:13:00
8:33 PM,82.4,71.6,70,29.99,10.0,WSW,5.8,-,N/A,,Scattered Clouds,250,2013-08-27 00:33:00
8:53 PM,80.6,71.6,74,30.00,10.0,WSW,6.9,-,N/A,,Clear,240,2013-08-27 00:53:00
9:13 PM,80.6,71.6,74,30.00,10.0,WSW,4.6,-,N/A,,Scattered Clouds,250,2013-08-27 01:13:00
9:33 PM,80.6,71.6,74,30.00,10.0,WSW,6.9,-,N/A,,Scattered Clouds,250,2013-08-27 01:33:00
9:53 PM,80.6,71.6,74,30.00,10.0,WSW,3.5,-,N/A,,Scattered Clouds,250,2013-08-27 01:53:00
10:13 PM,78.8,71.6,78,30.00,10.0,WSW,5.8,-,N/A,,Mostly Cloudy,250,2013-08-27 02:13:00
10:33 PM,78.8,71.6,78,30.00,10.0,WSW,5.8,-,N/A,,Mostly Cloudy,240,2013-08-27 02:33:00
10:54 PM,80.6,71.6,74,30.00,10.0,WSW,4.6,-,N/A,,Mostly Cloudy,250,2013-08-27 02:54:00
11:14 PM,78.8,71.6,78,30.00,10.0,WSW,3.5,-,N/A,,Mostly Cloudy,250,2013-08-27 03:14:00
11:34 PM,78.8,71.6,78,30.00,10.0,West,3.5,-,N/A,,Overcast,260,2013-08-27 03:34:00
11:54 PM,78.8,71.6,78,30.00,10.0,Calm,Calm,-,N/A,,Overcast,0,2013-08-27 03:54:00